TimeEST,TemperatureF,Dew PointF,Humidity,Sea Level PressureIn,VisibilityMPH,Wind Direction,Wind SpeedMPH,Gust SpeedMPH,PrecipitationIn,Events,Conditions,WindDirDegrees,DateUTC
12:53 AM,10.9,1.9,67,30.23,10.0,ENE,5.8,-,N/A,,Clear,70,2014-02-28 05:53:00
1:53 AM,9.0,1.9,73,30.25,10.0,ENE,4.6,-,N/A,,Clear,70,2014-02-28 06:53:00
2:53 AM,9.0,1.9,73,30.26,10.0,ENE,3.5,-,N/A,,Clear,60,2014-02-28 07:53:00
3:53 AM,9.0,1.9,73,30.26,10.0,ENE,5.8,-,N/A,,Clear,70,2014-02-28 08:53:00
4:53 AM,9.0,1.9,73,30.27,10.0,East,4.6,-,N/A,,Clear,80,2014-02-28 09:53:00
5:53 AM,8.1,1.0,73,30.28,10.0,East,5.8,-,N/A,,Clear,80,2014-02-28 10:53:00
6:53 AM,9.0,1.9,73,30.29,10.0,East,5.8,-,N/A,,Clear,80,2014-02-28 11:53:00
7:53 AM,10.9,3.0,70,30.31,10.0,East,6.9,-,N/A,,Clear,100,2014-02-28 12:53:00
8:53 AM,14.0,3.0,62,30.31,10.0,ESE,6.9,-,N/A,,Clear,110,2014-02-28 13:53:00
9:53 AM,19.0,5.0,54,30.32,10.0,SE,6.9,-,N/A,,Clear,130,2014-02-28 14:53:00
10:53 AM,21.9,3.9,46,30.31,10.0,Variable,3.5,-,N/A,,Clear,0,2014-02-28 15:53:00
11:53 AM,27.0,3.9,37,30.29,10.0,SSE,8.1,-,N/A,,Clear,160,2014-02-28 16:53:00
12:53 PM,30.0,3.9,33,30.26,10.0,ESE,9.2,-,N/A,,Clear,120,2014-02-28 17:53:00
1:53 PM,33.1,6.1,32,30.22,10.0,Variable,6.9,-,N/A,,Clear,0,2014-02-28 18:53:00
2:53 PM,36.0,6.1,29,30.21,10.0,Variable,4.6,-,N/A,,Clear,0,2014-02-28 19:53:00
3:53 PM,36.0,5.0,27,30.18,10.0,SE,6.9,-,N/A,,Clear,140,2014-02-28 20:53:00
4:53 PM,37.0,6.1,28,30.15,10.0,Variable,4.6,-,N/A,,Clear,0,2014-02-28 21:53:00
5:53 PM,36.0,8.1,31,30.14,10.0,Variable,4.6,-,N/A,,Clear,0,2014-02-28 22:53:00
6:53 PM,30.9,9.0,40,30.13,10.0,East,4.6,-,N/A,,Clear,100,2014-02-28 23:53:00
7:53 PM,28.0,10.0,47,30.14,10.0,East,3.5,-,N/A,,Clear,90,2014-03-01 00:53:00
8:53 PM,25.0,12.9,60,30.14,10.0,Calm,Calm,-,N/A,,Clear,0,2014-03-01 01:53:00
9:53 PM,25.0,10.0,53,30.15,10.0,Calm,Calm,-,N/A,,Clear,0,2014-03-01 02:53:00
10:53 PM,21.9,12.9,68,30.15,10.0,Calm,Calm,-,N/A,,Clear,0,2014-03-01 03:53:00
11:53 PM,23.0,15.1,72,30.13,10.0,East,4.6,-,N/A,,Clear,100,2014-03-01 04:53:00